Tracking 27124 objects as of 31-Mar-2023
HD Live streaming from Space Station
objects crossing your sky now

SES MPOWER-A F2

Track SES MPOWER-A F2 now!
10-day predictions


NORAD ID: 54756
Int'l Code: 2022-174B
Perigee: 7,543.2 km
Apogee: 8,253.1 km
Inclination: 0.4 °
Period: 282.7 minutes
Semi major axis: 14269 km
RCS: Unknown
Launch date: December 16, 2022
Source: SOCIETE EUROPEENNE DES SATELLITES (SES)
Launch site: AIR FORCE EASTERN TEST RANGE (AFETR)
Your satellite tracking list
Your tracking list is empty




NASA's NSSDC Master Catalog

Two Line Element Set (TLE):
1 54756U 22174B   23089.54523667 -.00000028  00000-0  00000+0 0  9993
2 54756   0.3974 163.3765 0248757  16.2132 180.4275  5.09339610  6662
Source of the keplerian elements: AFSPC